STARLINK-36446, 67412

Orbit data source: Space-Track

STARLINK-36446, 67412 is a payload satellite owned by SpaceX/Seattle (US) in LEO that was launched on Mon, 12 Jan 2026 UTC via an FALCON 9 launch vehicle from the Air Force Eastern Test Range (AFETR). Payload-class satellites include a variety of spacecraft equipped with specific instruments for various scientific and technological missions. These include communications satellites like Starlink; space stations such as the ISS; scientific satellites like the Hubble; Earth observation satellites from companies like Planet Labs, Umbra, and HawkEye 360; GPS; miniature CubeSats for education and research; and military/defense satellites.

Loading next visibility...
Identifier
67412, 2026-005J
Orbit
LEO
Country
Flag of USUS
Related business
Manufacturer
SpaceX/Seattle
Mission
Operational Commercial Communications
Bus & Motor
STARLINK V2MO, Unknown motor
Mass
575 kg wet, ~530 kg dry
Launch date (UTC)
2026-01-12 (5 months ago)
Launch vehicle
FALCON 9
Launch site
Air Force Eastern Test Range (AFETR)
Object type
Payload
Rocket body
Debris
Shape & HBR
Box + 2 Pan, 17.7 m
Radar Cross Section
36.964 m², Large (>1 m²)

Expand to show TLE details & history
Last TLE update: 20 hours ago

TLE from 20 hours ago
0 STARLINK-36446
1 67412U 26005J   26170.99945011  .00010128  00000-0  37695-3 0  9992
2 67412  43.0013  20.1771 0001259 272.8548  87.2160 15.27590445 24343
Epoch: 2026-06-19T23:59Z
TLE epoch observation values (Epoch: 2026-06-19T23:59:12.489Z)
Latitude
0.00001°
Longitude
112.15471°
Altitude
482.752 km
Speed
7.626 km/s
True Right ascension
01h 20m 42s
True Declination
0° 00' 00"
Sunlit
Object was in daylight at epoch
Visualization orbit readout
Latitude
Unknown
Longitude
Unknown
Altitude
Unknown
Speed
Unknown
Apparent Right ascension
Unknown
Apparent Declination
Unknown
Sunlit
N/A
Visualization observer readout
Local Sidereal Time
07:12:20
Azimuth
Unknown
Elevation
Unknown
Doppler factor
Unknown
Orbital elements
Apogee altitude
485.827 km
Perigee altitude
484.099 km
Semi-major axis
6,863.1 km
Eccentricity
0.00013
Inclination
43.0013°
RAAN
20.1771°
Arg. of periapsis
272.8548°
True anomaly
87.23041°
Mean anomaly
87.216°
Eccentric anomaly
87.22321°
Mean motion
3.81736 °/min
Orbital period
94.31 mins
BSTAR
0.00037695
Loading maneuver chart data...
Computing Atmospheric mass density...
Loading historical data...
Loading historical data...
Loading historical data...
Loading historical data...
Loading historical data...
Loading historical data...
Loading historical data...

Documentation

Showing up to 5 results
|